TimeEST,TemperatureF,Dew PointF,Humidity,Sea Level PressureIn,VisibilityMPH,Wind Direction,Wind SpeedMPH,Gust SpeedMPH,PrecipitationIn,Events,Conditions,WindDirDegrees,DateUTC
12:15 AM,23.0,9.5,56,29.99,10.0,WNW,5.8,-,N/A,,Overcast,300,2013-01-02 05:15:00
12:35 AM,23.0,10.2,58,29.99,10.0,WNW,6.9,-,N/A,,Overcast,290,2013-01-02 05:35:00
12:55 AM,23.0,10.4,59,29.99,10.0,West,4.6,-,N/A,,Overcast,280,2013-01-02 05:55:00
1:15 AM,23.0,10.8,60,29.99,10.0,WNW,8.1,-,N/A,,Overcast,290,2013-01-02 06:15:00
1:35 AM,22.8,10.9,60,29.98,10.0,West,8.1,-,N/A,,Overcast,280,2013-01-02 06:35:00
1:55 AM,22.6,10.4,59,29.98,10.0,WNW,10.4,-,N/A,,Overcast,300,2013-01-02 06:55:00
2:15 AM,22.5,10.2,59,29.99,10.0,WNW,9.2,-,N/A,,Overcast,290,2013-01-02 07:15:00
2:35 AM,21.9,10.2,61,29.99,10.0,WNW,9.2,-,N/A,,Mostly Cloudy,290,2013-01-02 07:35:00
2:55 AM,21.6,10.0,61,29.99,10.0,West,5.8,-,N/A,,Mostly Cloudy,280,2013-01-02 07:55:00
3:15 AM,20.8,9.5,62,29.99,10.0,West,4.6,-,N/A,,Clear,270,2013-01-02 08:15:00
3:35 AM,20.7,9.5,62,29.99,10.0,West,5.8,-,N/A,,Scattered Clouds,260,2013-01-02 08:35:00
3:55 AM,19.6,9.5,65,30.00,10.0,WSW,9.2,-,N/A,,Scattered Clouds,250,2013-01-02 08:55:00
4:15 AM,18.9,9.5,67,30.00,10.0,WSW,9.2,-,N/A,,Scattered Clouds,250,2013-01-02 09:15:00
4:35 AM,19.0,9.5,66,30.00,10.0,West,6.9,-,N/A,,Clear,260,2013-01-02 09:35:00
5:53 AM,17.6,8.6,68,30.00,10.0,West,9.2,-,N/A,,Scattered Clouds,270,2013-01-02 10:53:00
6:53 AM,17.6,8.6,68,30.04,10.0,West,11.5,-,N/A,,Mostly Cloudy,280,2013-01-02 11:53:00
7:53 AM,19.4,8.6,63,30.05,10.0,West,11.5,-,N/A,,Mostly Cloudy,280,2013-01-02 12:53:00
8:53 AM,19.4,8.6,63,30.07,10.0,West,11.5,-,N/A,,Scattered Clouds,270,2013-01-02 13:53:00
9:53 AM,21.2,10.4,63,30.08,10.0,West,11.5,-,N/A,,Mostly Cloudy,270,2013-01-02 14:53:00
10:53 AM,23.0,12.2,63,30.08,10.0,West,13.8,-,N/A,,Overcast,280,2013-01-02 15:53:00
11:53 AM,23.0,12.2,63,30.07,6.0,West,11.5,-,N/A,Snow,Light Snow,260,2013-01-02 16:53:00
12:53 PM,39.2,12.2,33,30.07,7.0,West,9.2,-,N/A,,Unknown,260,2013-01-02 17:53:00
1:53 PM,24.8,12.2,59,30.08,10.0,West,13.8,-,N/A,,Mostly Cloudy,280,2013-01-02 18:53:00
2:53 PM,24.8,10.4,54,30.08,10.0,WNW,10.4,-,N/A,,Mostly Cloudy,290,2013-01-02 19:53:00
3:53 PM,24.8,10.4,54,30.09,10.0,NW,9.2,-,N/A,,Scattered Clouds,310,2013-01-02 20:53:00
4:53 PM,24.8,10.4,54,30.10,10.0,NW,6.9,-,N/A,,Partly Cloudy,310,2013-01-02 21:53:00
5:53 PM,23.0,10.4,59,30.11,10.0,WNW,4.6,-,N/A,,Partly Cloudy,290,2013-01-02 22:53:00
6:53 PM,23.0,10.4,59,30.13,10.0,West,5.8,-,N/A,,Clear,280,2013-01-02 23:53:00
7:53 PM,21.2,10.4,63,30.13,10.0,West,4.6,-,N/A,,Clear,280,2013-01-03 00:53:00
8:15 PM,17.6,8.8,68,30.13,10.0,South,3.5,-,N/A,,Clear,190,2013-01-03 01:15:00
8:35 PM,17.6,9.0,69,30.14,10.0,SSW,4.6,-,N/A,,Clear,200,2013-01-03 01:35:00
8:53 PM,17.6,10.4,73,30.14,10.0,WSW,4.6,-,N/A,,Scattered Clouds,240,2013-01-03 01:53:00
8:55 PM,19.6,10.4,68,30.14,10.0,SW,3.5,-,N/A,,Mostly Cloudy,230,2013-01-03 01:55:00
9:15 PM,20.1,10.4,66,30.15,10.0,West,4.6,-,N/A,,Scattered Clouds,260,2013-01-03 02:15:00
9:35 PM,19.9,10.4,67,30.15,10.0,Calm,Calm,-,N/A,,Clear,0,2013-01-03 02:35:00
9:55 PM,19.8,10.4,67,30.15,10.0,WNW,4.6,-,N/A,,Clear,290,2013-01-03 02:55:00
10:15 PM,19.8,10.2,67,30.16,10.0,SW,3.5,-,N/A,,Clear,230,2013-01-03 03:15:00
10:35 PM,18.3,10.4,71,30.17,10.0,Calm,Calm,-,N/A,,Clear,0,2013-01-03 03:35:00
10:55 PM,18.7,10.4,70,30.17,10.0,Calm,Calm,-,N/A,,Clear,0,2013-01-03 03:55:00
11:15 PM,19.2,10.4,69,30.18,10.0,Calm,Calm,-,N/A,,Clear,0,2013-01-03 04:15:00
11:35 PM,19.0,10.2,69,30.18,10.0,West,4.6,-,N/A,,Clear,270,2013-01-03 04:35:00
11:55 PM,17.1,9.5,72,30.17,10.0,SW,4.6,-,N/A,,Clear,230,2013-01-03 04:55:00